Terminal Aerodrome Forecast
Issued by NWS Wilmington, NC

Home | Current Version | Previous Version | Text Only | Print | Product List | Glossary On
Versions: 1 2 3 4 5 6 7 8 9 10 11 12 13 14 15 16 17 18
000
FTUS42 KILM 051120
TAFFLO
TAF
KFLO 051120Z 0512/0612 22004KT P6SM SCT250
     FM051400 25007KT P6SM SCT050
     FM052000 23008KT P6SM VCTS SCT030CB BKN050
     FM060000 20005KT P6SM BKN250=

USA.gov is the U.S. government's official web portal to all federal, state and local government web resources and services.